Page, AZ

6:40 AM MST on December 05, 2016 (GMT -0700)
Page Municipal

Weather History for KPGA - December, 2012

Change the Weather History Date:

Wednesday, December 19, 2012

  Actual Average Record
Temperature  
Mean Temperature 34 °F -  
Max Temperature 39 °F 43 °F 60 °F (2010)
Min Temperature 25 °F 26 °F 16 °F (1967)
Degree Days  
Heating Degree Days 32    
Moisture  
Dew Point 12 °F    
Average Humidity 44    
Maximum Humidity 79    
Minimum Humidity 19    
Precipitation  
Precipitation 0.00 in - - ()
Sea Level Pressure  
Sea Level Pressure 30.04 in    
Wind  
Wind Speed 8 mph (WNW)    
Max Wind Speed 17 mph    
Max Gust Speed 31 mph    
Visibility 10 miles    
Events Snow    
Averages and records for this station are not official NWS values.
T = Trace of Precipitation, MM = Missing Value Source: NWS Daily Summary

Daily Weather History Graph

Daily Weather History Graph

Search for Another Location

Airport or City:

Trip Planner

Search our weather history database for the weather conditions in past years. The results will help you decide how hot, cold, wet, or windy it might be!

Date:

Astronomy

Dec. 19, 2012 Rise Set
Actual Time 7:34 AM MST 5:12 PM MST
Civil Twilight 7:05 AM MST 5:41 PM MST
Nautical Twilight 6:32 AM MST 6:13 PM MST
Astronomical Twilight 6:01 AM MST 6:45 PM MST
Moon 11:54 AM MST (12/19) No Moon Set
Length of Visible Light 10h 35m
Length of Day
9h 37m
Waxing Crescent, 45% of the Moon is Illuminated
Dec 19
Waxing Crescent
Dec 19
First Quarter
Dec 28
Full
Jan 4
Last Quarter
Jan 11
New

Hourly Weather History & Observations

Time (MST) Temp. Windchill Dew Point Humidity Pressure Visibility Wind Dir Wind Speed Gust Speed Precip Events Conditions
12:53 AM 37.0 °F 33.3 °F 27.0 °F 67% 29.55 in 10.0 mi WNW 4.6 mph - N/A   Mostly Cloudy
1:53 AM 36.0 °F 32.1 °F 28.0 °F 73% 29.57 in 10.0 mi Variable 4.6 mph - N/A   Mostly Cloudy
2:53 AM 34.0 °F 24.6 °F 28.0 °F 79% 29.59 in 10.0 mi NW 13.8 mph 21.9 mph N/A   Mostly Cloudy
3:53 AM 30.9 °F 21.2 °F 24.1 °F 76% 29.62 in 7.0 mi WNW 12.7 mph 21.9 mph 0.00 in Snow Light Snow
4:53 AM 32.0 °F 23.6 °F 21.2 °F 64% 29.65 in 10.0 mi West 10.4 mph 18.4 mph N/A   Overcast
5:53 AM 32.0 °F 23.0 °F 15.1 °F 50% 29.68 in 10.0 mi WNW 11.5 mph 23.0 mph N/A   Overcast
6:53 AM 30.9 °F 22.2 °F 12.0 °F 46% 29.77 in 10.0 mi WNW 10.4 mph 20.7 mph N/A   Overcast
7:53 AM 30.0 °F 20.0 °F 10.0 °F 43% 29.85 in 10.0 mi WNW 12.7 mph 25.3 mph N/A   Partly Cloudy
8:53 AM 30.0 °F 18.3 °F 7.0 °F 38% 29.93 in 10.0 mi WNW 17.3 mph 31.1 mph N/A   Clear
9:53 AM 32.0 °F 22.5 °F 6.1 °F 34% 30.03 in 10.0 mi WNW 12.7 mph 25.3 mph N/A   Clear
10:53 AM 33.1 °F 23.9 °F 6.1 °F 32% 30.06 in 10.0 mi WNW 12.7 mph 27.6 mph N/A   Clear
11:53 AM 35.1 °F 27.9 °F 7.0 °F 31% 30.09 in 10.0 mi NW 9.2 mph 18.4 mph N/A   Clear
12:53 PM 37.0 °F 29.3 °F 7.0 °F 29% 30.10 in 10.0 mi WNW 11.5 mph 18.4 mph N/A   Clear
1:53 PM 37.0 °F 28.9 °F 7.0 °F 29% 30.12 in 10.0 mi NW 12.7 mph 20.7 mph N/A   Clear
2:53 PM 37.0 °F 30.4 °F 8.1 °F 30% 30.16 in 10.0 mi West 9.2 mph 21.9 mph N/A   Clear
3:53 PM 36.0 °F 30.3 °F 8.1 °F 31% 30.21 in 10.0 mi WNW 6.9 mph 20.7 mph N/A   Clear
4:53 PM 34.0 °F 28.8 °F 7.0 °F 32% 30.24 in 10.0 mi WNW 5.8 mph 16.1 mph N/A   Clear
5:53 PM 33.1 °F 26.9 °F 7.0 °F 34% 30.26 in 10.0 mi West 6.9 mph - N/A   Clear
6:53 PM 32.0 °F 26.4 °F 8.6 °F 38% 30.26 in 10.0 mi WNW 5.8 mph - N/A   Clear
7:53 PM 32.0 °F 26.4 °F 9.0 °F 38% 30.33 in 10.0 mi West 5.8 mph - N/A   Clear
8:53 PM 28.0 °F - 12.9 °F 53% 30.38 in 9.0 mi Calm Calm - N/A   Clear
9:53 PM 28.0 °F - 14.0 °F 56% 30.40 in 5.0 mi Calm Calm - N/A   Haze
10:53 PM 28.0 °F 24.2 °F 10.0 °F 47% 30.43 in 10.0 mi SSW 3.5 mph - N/A   Clear
11:53 PM 25.0 °F - 14.0 °F 63% 30.45 in 10.0 mi Calm Calm - N/A   Clear